Wind_Speed
17 17 17 17 17 18 18 19 19 19 20 21 20 20 18 18 18 17 18 19 20 20 20 21 20 21 21 20 20 20 20 20 19 19 18 19 19 19
18 19 19 19 20 20 20 21 22 22 22 22 20 19 19 18 17 18 19 20 21 21 21 21 20 20 21 20 21 21 21 19 19 19 19 19 19 19
20 20 21 21 21 22 22 22 22 22 22 22 21 20 20 19 19 19 20 20 21 21 21 20 20 20 20 20 20 20 20 20 20 20 19 19 20 20
21 21 21 22 22 22 23 22 22 22 21 21 21 21 21 21 20 20 20 20 20 20 20 20 20 20 20 21 20 20 20 20 20 20 20 20 21 21
22 22 22 22 22 23 23 23 23 23 23 22 22 22 22 22 22 22 21 21 21 20 20 20 20 20 20 21 21 21 21 21 21 20 21 21 21 21
23 23 24 24 23 24 24 25 25 25 24 24 24 24 24 23 23 22 22 22 21 21 20 19 19 20 20 20 21 21 21 21 21 21 21 21 21 22
25 25 25 25 25 25 26 26 26 26 25 25 24 24 24 24 23 22 22 21 21 21 20 19 19 19 19 20 20 21 21 22 21 22 21 21 22 22
26 26 26 26 26 27 27 27 26 26 26 25 25 25 25 24 23 22 22 22 21 21 21 20 20 19 20 21 20 21 21 22 21 21 22 21 21 21
27 27 27 28 28 29 29 29 28 28 27 26 26 25 25 24 24 23 22 22 21 22 22 21 20 20 20 20 21 21 21 21 21 21 22 22 21 20
28 28 28 28 29 29 30 30 29 29 27 27 27 26 25 25 25 24 23 23 22 22 22 21 21 21 21 20 20 21 21 21 21 21 22 21 20 20
29 29 28 28 29 29 29 29 29 29 28 28 28 27 27 25 24 24 24 23 22 22 21 21 21 20 20 20 20 20 21 21 21 21 21 21 20 20
29 29 29 29 29 29 28 28 27 27 27 27 27 27 26 25 25 25 24 23 22 22 22 21 20 20 19 19 20 21 21 21 20 20 21 20 20 19
29 29 29 29 28 27 27 27 27 27 26 25 25 25 25 25 24 24 24 24 24 23 22 22 21 21 20 19 19 19 20 20 20 20 20 20 20 20
29 28 28 27 27 27 27 27 26 26 25 25 25 25 24 24 23 24 25 25 25 24 23 22 22 21 21 21 20 20 20 20 20 20 20 20 20 21
29 29 28 27 27 27 26 26 25 25 25 25 25 24 24 24 24 24 25 25 24 24 24 23 23 23 22 22 22 21 20 20 20 20 20 20 20 21
29 29 28 28 27 27 26 25 25 25 25 25 25 25 25 25 24 24 24 25 25 24 24 24 24 24 23 23 23 22 21 21 20 20 20 20 20 20
29 29 29 28 27 26 26 25 24 24 24 24 25 25 25 24 24 24 24 24 24 24 24 24 24 24 24 24 23 23 22 21 21 21 21 20 20 20
29 29 28 27 26 26 26 25 25 25 25 25 25 25 24 24 24 24 24 24 24 24 24 24 24 23 23 23 23 23 23 23 22 22 21 20 20 20
29 28 28 27 27 27 26 25 25 25 26 26 25 25 25 24 24 24 24 24 24 24 24 24 24 23 24 24 23 24 24 23 22 21 21 21 20 20
29 28 28 27 27 27 27 26 26 26 26 26 26 25 25 25 24 24 24 24 24 24 24 24 23 23 23 24 23 23 22 22 22 22 21 21 20 20
28 28 27 27 28 28 28 28 27 27 26 26 25 25 25 24 23 23 23 24 24 24 23 23 23 23 23 23 22 22 22 22 22 21 20 20 20 20
28 28 28 28 28 28 28 28 28 27 25 25 24 24 24 23 23 23 23 23 24 24 23 22 22 22 22 21 22 22 22 21 21 21 20 20 20 20
29 29 29 28 28 28 28 27 27 26 25 25 24 24 24 23 23 23 23 23 23 23 23 22 22 22 21 21 22 22 22 22 21 21 20 20 20 20
Wind_Direction
302 301 302 302 302 302 304 304 304 304 303 303 302 303 301 298 296 294 294 293 291 289 287 288 287 284 281 279 278 278 277 276 273 272 271 267 267 267
300 299 300 300 300 300 302 302 302 304 304 305 303 302 301 300 296 294 294 292 291 290 287 286 286 284 281 280 278 277 275 272 271 270 269 267 266 266
300 299 299 300 299 299 301 302 303 304 305 304 303 302 301 300 296 295 294 292 290 289 286 285 285 284 282 280 277 276 275 273 271 268 268 266 265 264
300 300 300 299 299 299 300 301 302 302 301 300 301 301 301 298 297 296 295 294 290 288 287 286 286 285 283 281 279 274 274 275 274 269 268 268 266 265
303 302 301 300 298 298 298 298 299 298 297 297 298 298 299 297 296 296 294 294 291 290 289 289 287 288 288 286 281 276 276 275 275 273 269 267 266 266
303 304 302 301 299 299 299 298 297 296 296 296 296 296 297 296 296 294 294 293 292 293 290 287 285 285 287 286 283 278 277 276 276 275 273 270 268 266
300 301 301 300 300 299 298 297 296 294 294 293 293 294 294 294 294 294 293 293 293 293 292 290 288 288 288 289 287 282 279 277 277 276 273 273 271 268
298 298 299 298 298 297 297 297 297 295 293 292 291 293 294 294 293 293 292 292 292 292 292 292 291 289 288 287 286 283 279 277 277 276 273 275 275 270
296 296 297 297 296 295 296 295 295 294 292 291 291 292 293 293 292 291 290 290 290 291 291 291 290 289 287 285 283 283 281 280 278 276 276 276 275 272
296 297 296 297 296 296 294 294 294 292 291 290 291 291 290 290 290 290 289 289 288 290 291 291 290 289 288 285 282 282 282 282 280 278 277 273 272 270
296 297 298 298 297 296 295 294 294 293 290 290 289 288 289 290 288 288 288 289 289 290 291 290 290 289 287 284 284 283 283 283 280 279 277 273 271 268
295 296 297 296 295 294 294 294 293 294 292 288 287 288 289 288 287 287 287 287 288 288 287 287 289 289 289 286 284 283 284 284 280 276 274 273 272 268
295 296 296 296 294 294 295 295 294 293 292 290 288 287 286 287 286 286 287 287 287 289 287 286 286 287 287 287 285 282 282 283 282 279 276 275 274 272
296 297 296 294 293 294 296 296 295 293 291 290 289 287 286 286 286 286 286 287 286 286 285 285 286 286 285 284 284 284 282 281 280 280 278 276 274 273
297 296 295 294 293 294 296 296 295 294 292 292 291 288 286 286 287 287 286 285 284 283 284 284 284 284 283 283 284 284 283 282 280 278 277 278 275 269
299 297 295 294 293 293 293 294 293 292 292 292 292 291 288 286 285 284 284 284 282 282 283 283 282 281 282 283 284 283 282 282 281 277 276 275 274 271
298 298 297 295 294 294 293 292 291 290 291 291 292 291 288 285 283 283 283 283 283 282 283 285 282 280 281 282 283 282 283 283 282 280 276 274 271 270
297 296 295 295 294 293 292 291 290 290 290 289 290 291 288 285 283 283 282 282 284 283 283 284 282 280 279 280 281 282 282 282 281 279 276 273 271 269
295 295 295 294 294 293 292 290 289 289 288 289 289 289 288 286 284 283 282 281 283 285 283 282 281 278 276 278 281 281 281 280 278 277 274 271 270 270
293 293 294 294 294 294 294 292 290 289 289 288 288 288 287 285 284 283 282 281 283 284 283 281 280 278 276 277 279 280 280 279 279 277 271 269 270 269
291 292 294 294 294 295 295 294 291 290 289 288 288 288 287 285 283 282 282 283 284 285 283 279 278 277 276 276 277 278 279 280 279 275 270 267 267 268
292 291 292 294 294 296 295 293 291 289 289 289 289 288 287 285 283 281 282 283 283 282 280 278 275 275 276 276 277 278 279 278 276 273 270 269 268 267
293 292 292 293 294 294 294 293 291 289 288 288 288 288 287 285 283 282 282 282 283 283 280 277 275 274 275 275 277 277 277 277 275 272 268 267 268 267
Height
5870 5869 5868 5866 5864 5863 5861 5859 5858 5856 5854 5852 5850 5848 5846 5845 5844 5844 5843 5843 5842 5841 5840 5839 5838 5837 5837 5836 5836 5836 5836 5836 5835 5835 5835 5835 5835 5836
5867 5865 5864 5862 5860 5859 5857 5855 5853 5851 5849 5847 5846 5844 5842 5841 5840 5839 5838 5837 5836 5835 5834 5833 5832 5831 5830 5830 5829 5829 5829 5829 5829 5829 5829 5829 5830 5830
5862 5861 5859 5857 5856 5854 5852 5850 5848 5847 5845 5843 5841 5840 5838 5837 5835 5834 5833 5832 5831 5830 5828 5827 5826 5825 5824 5824 5823 5823 5823 5823 5823 5823 5823 5823 5824 5824
5858 5856 5854 5852 5851 5849 5847 5845 5844 5842 5840 5838 5837 5835 5834 5832 5830 5829 5828 5826 5825 5824 5823 5822 5821 5820 5819 5818 5818 5817 5817 5817 5817 5817 5817 5817 5817 5817
5853 5851 5849 5847 5845 5844 5842 5840 5839 5837 5835 5833 5832 5830 5828 5827 5825 5823 5822 5821 5820 5818 5817 5816 5815 5814 5814 5813 5812 5812 5812 5811 5811 5811 5811 5811 5811 5811
5848 5846 5844 5842 5840 5838 5837 5835 5833 5831 5829 5828 5826 5824 5823 5821 5819 5818 5816 5815 5814 5812 5811 5810 5809 5808 5807 5807 5806 5806 5805 5805 5804 5804 5804 5804 5804 5804
5842 5840 5838 5836 5834 5833 5831 5829 5827 5825 5823 5821 5820 5818 5817 5815 5813 5812 5811 5809 5808 5806 5805 5804 5803 5802 5802 5800 5799 5799 5799 5798 5798 5798 5798 5797 5797 5798
5836 5834 5832 5830 5828 5826 5824 5822 5820 5818 5817 5815 5814 5812 5810 5808 5807 5805 5804 5803 5802 5801 5799 5798 5797 5796 5795 5794 5793 5793 5792 5792 5792 5791 5791 5791 5791 5790
5829 5827 5825 5823 5822 5820 5818 5816 5814 5812 5810 5808 5807 5805 5804 5802 5800 5798 5797 5796 5796 5794 5793 5792 5791 5790 5789 5788 5787 5786 5786 5786 5786 5785 5785 5785 5785 5784
5822 5820 5818 5816 5814 5812 5810 5808 5806 5804 5802 5801 5800 5798 5796 5795 5793 5792 5791 5790 5789 5787 5786 5786 5784 5784 5783 5781 5781 5780 5780 5779 5779 5779 5778 5778 5778 5778
5814 5812 5810 5808 5806 5804 5802 5800 5798 5796 5795 5793 5792 5790 5789 5787 5786 5785 5784 5783 5782 5781 5780 5779 5778 5777 5776 5775 5774 5774 5774 5773 5772 5772 5772 5771 5771 5771
5806 5804 5802 5800 5798 5795 5793 5791 5790 5788 5786 5785 5784 5783 5781 5780 5779 5778 5777 5776 5775 5775 5773 5772 5771 5770 5770 5769 5768 5767 5767 5766 5766 5766 5765 5765 5765 5765
5798 5796 5794 5792 5789 5787 5785 5783 5782 5780 5778 5777 5776 5775 5774 5773 5771 5770 5770 5769 5768 5767 5767 5765 5765 5764 5764 5763 5762 5761 5761 5760 5760 5759 5759 5759 5759 5759
5790 5788 5786 5783 5782 5780 5778 5776 5774 5772 5771 5770 5769 5768 5767 5765 5764 5763 5762 5762 5761 5760 5759 5759 5758 5758 5757 5756 5756 5755 5754 5754 5753 5753 5753 5752 5752 5752
5782 5780 5778 5775 5774 5772 5770 5768 5766 5765 5764 5762 5761 5760 5759 5758 5757 5756 5755 5754 5753 5752 5752 5751 5751 5751 5750 5750 5749 5749 5748 5747 5747 5747 5746 5746 5746 5745
5774 5772 5770 5768 5766 5764 5762 5760 5759 5757 5756 5755 5754 5752 5751 5750 5749 5748 5747 5746 5746 5745 5744 5744 5743 5743 5743 5743 5742 5742 5741 5741 5740 5740 5739 5739 5739 5739
5766 5764 5762 5760 5758 5756 5755 5753 5751 5750 5748 5747 5746 5745 5743 5742 5741 5740 5739 5739 5738 5737 5737 5736 5735 5735 5735 5735 5734 5734 5734 5734 5733 5733 5732 5733 5733 5733
5758 5756 5754 5752 5750 5749 5747 5745 5743 5742 5741 5739 5738 5736 5735 5734 5733 5732 5731 5731 5730 5730 5729 5728 5728 5727 5727 5727 5727 5727 5726 5726 5726 5725 5725 5726 5726 5726
5750 5748 5746 5744 5743 5741 5739 5737 5736 5734 5733 5731 5730 5728 5727 5726 5725 5724 5723 5723 5722 5722 5721 5721 5720 5720 5720 5720 5720 5719 5719 5718 5718 5718 5718 5719 5719 5720
5742 5740 5738 5736 5734 5732 5731 5729 5727 5726 5724 5723 5721 5720 5719 5718 5717 5716 5716 5715 5714 5714 5713 5713 5712 5712 5712 5712 5712 5712 5711 5711 5710 5711 5711 5711 5712 5713
5733 5731 5730 5728 5726 5724 5723 5721 5719 5717 5716 5714 5713 5712 5711 5710 5709 5709 5708 5707 5706 5706 5705 5705 5704 5704 5704 5704 5704 5704 5704 5704 5703 5704 5704 5704 5705 5706
5724 5723 5721 5719 5717 5716 5714 5712 5711 5709 5708 5707 5705 5704 5703 5702 5701 5701 5700 5700 5699 5698 5697 5697 5697 5697 5697 5697 5697 5697 5697 5697 5697 5696 5697 5698 5698 5699
5716 5714 5713 5711 5709 5707 5705 5704 5702 5701 5700 5699 5697 5696 5695 5694 5694 5693 5693 5692 5691 5691 5690 5690 5690 5690 5690 5690 5690 5689 5689 5689 5689 5690 5690 5690 5691 5692